Preview of NWS' New Version of Forecast
This preview is not operational and should not be used for support decisions.

Regional Weather Roundup (RWR)

Issued by National Weather Service (NWS)

                            
000
ASUS43 KTOP 170859
RWRKS 

WEATHER ROUNDUP FOR KANSAS
NATIONAL WEATHER SERVICE GOODLAND KS
300 AM CST SUN FEB 17 2019

NOTE:  "FAIR" INDICATES FEW OR NO CLOUDS BELOW 12,000 FEET WITH NO
SIGNIFICANT WEATHER AND/OR OBSTRUCTIONS TO VISIBILITY.

KSZ001>006-013>018-027>032-041>047-171000-
NORTHWEST KANSAS
  
CITY           SKY/WX    TMP DP  RH WIND       PRES   REMARKS
GOODLAND       FAIR      19  16  88 NW15      29.73S WCI   5          
HILL CITY      CLOUDY    18  15  88 NW6       29.79R                  
RUSSELL        CLOUDY    19  18  95 W6        29.77R                  
$$

KSZ061>065-074>080-084>089-171000-
SOUTHWEST KANSAS
  
CITY           SKY/WX    TMP DP  RH WIND       PRES   REMARKS
DODGE CITY       N/A     20  16  84 NW10      29.74R WCI   9          
ELKHART        FAIR      26  23  90 W9        29.78R                  
GARDEN CITY    FAIR      22  20  92 NW14      29.76R WCI   9          
GREAT BEND     CLOUDY    21  19  92 NW9       29.79R                  
LIBERAL        FAIR      23  21  92 NW12      29.77R WCI  12          
$$

KSZ066>073-081>083-090>101-171000-
SOUTHEAST KANSAS
  
CITY           SKY/WX    TMP DP  RH WIND       PRES   REMARKS
CHANUTE        CLOUDY    29  26  89 NW6       29.75F                  
COFFEYVILLE    CLOUDY    30  27  88 W8        29.79R                  
HUTCHINSON     CLOUDY    22  20  92 NW9       29.77S                  
MEDICINE LODGE   N/A     24  22  91 W3        29.80R                  
NEWTON         CLOUDY    21  20  96 NW16      29.77R WCI   7          
PARSONS        CLOUDY    29  28  96 W8        29.79R                  
WICHITA INTL   CLOUDY    26  23  88 NW13      29.77S WCI  15          
WICHITA JABRA  CLOUDY    24  21  88 NW13      29.77R WCI  12          
WICHITA MCCONL CLOUDY    27  21  80 W8        29.76                   
WINFIELD       CLOUDY    26  24  92 W9        29.80R                  
$$

KSZ007>012-019>026-033>040-048>060-102>105-171000-
NORTHEAST KANSAS
  
CITY           SKY/WX    TMP DP  RH WIND       PRES   REMARKS
CONCORDIA      CLOUDY    16  14  92 NW8       29.77F                  
EMPORIA        CLOUDY    23  23 100 NW8       29.75S FOG              
LAWRENCE       CLOUDY    24  22  91 NW7       29.76F FOG              
MANHATTAN      CLOUDY    22  20  92 W3        29.77F                  
OLATHE IND     CLOUDY    23  23 100 NW9       29.74F FOG              
OLATHE EXE     CLOUDY    24  24 100 W6        29.73F FOG              
SALINA         CLOUDY    20  19  96 NW6       29.79S                  
TOPEKA BILLARD CLOUDY    24  20  84 NW5       29.76F FOG              
TOPEKA FORBES  CLOUDY    24  21  88 NW7       29.74F FOG              
$$